When you browse on this site, cookies collect data to enhance your experience and personalize the content and advertising you see.
Visit our Privacy Policy to learn more. By continuing to use the site, you agree to this use of cookies and data.

Hourly Weather Vinh

Today, 20 September, Sunday

Time Temperature Precipitation Wind Pressure Humidity
00:00 +24°C° 1.6 mm 0 mps 745 mmHg 98%
01:00 +24°C° 0 mm 0 mps 745 mmHg 97%
02:00 +24°C° 0.3 mm 0 mps 744 mmHg 97%
03:00 +23°C° 0.3 mm 0 mps 744 mmHg 97%
04:00 +23°C° 0.3 mm 0 mps 744 mmHg 97%
05:00 +24°C° 0 mm 0 mps 744 mmHg 97%
06:00 +24°C° 0 mm 0 mps 745 mmHg 96%
07:00 +24°C° 0 mm 0 mps 745 mmHg 96%
08:00 +25°C° 0.2 mm 0 mps 746 mmHg 96%
09:00 +25°C° 0.2 mm 0 mps 746 mmHg 96%
10:00 +25°C° 0.2 mm 0 mps 747 mmHg 95%
11:00 +26°C° 0.6 mm 0 mps 746 mmHg 94%
12:00 +26°C° 0.6 mm 0 mps 746 mmHg 93%
13:00 +27°C° 0 mm 0 mps 745 mmHg 92%
14:00 +27°C° 0.8 mm 0 mps 745 mmHg 92%
15:00 +29°C° 0.8 mm 1 mps 745 mmHg 92%
16:00 +29°C° 0.8 mm 1 mps 744 mmHg 92%
17:00 +28°C° 0.2 mm 1 mps 745 mmHg 93%
18:00 +25°C° 0.2 mm 0 mps 745 mmHg 94%
19:00 +25°C° 0 mm 0 mps 745 mmHg 95%
20:00 +25°C° 0 mm 0 mps 746 mmHg 95%
21:00 +25°C° 0 mm 0 mps 746 mmHg 95%
22:00 +26°C° 0 mm 1 mps 747 mmHg 95%
23:00 +26°C° 0 mm 1 mps 746 mmHg 95%

Tomorrow, 21 September, Monday

Time Temperature Precipitation Wind Pressure Humidity
00:00 +26°C° 0 mm 1 mps 746 mmHg 95%
01:00 +26°C° 0 mm 1 mps 745 mmHg 95%
02:00 +26°C° 0 mm 1 mps 745 mmHg 95%
03:00 +26°C° 0 mm 1 mps 745 mmHg 95%
04:00 +24°C° 0 mm 0 mps 745 mmHg 95%
05:00 +24°C° 0 mm 0 mps 745 mmHg 94%
06:00 +27°C° 0 mm 1 mps 745 mmHg 93%
07:00 +27°C° 0 mm 1 mps 745 mmHg 92%
08:00 +27°C° 0 mm 0 mps 746 mmHg 86%
09:00 +28°C° 0 mm 0 mps 746 mmHg 79%
10:00 +30°C° 0 mm 0 mps 747 mmHg 72%
11:00 +30°C° 0.9 mm 0 mps 746 mmHg 74%
12:00 +30°C° 0.9 mm 0 mps 745 mmHg 76%
13:00 +32°C° 0.9 mm 1 mps 745 mmHg 78%
14:00 +32°C° 0.5 mm 1 mps 744 mmHg 80%
15:00 +31°C° 0.5 mm 1 mps 744 mmHg 82%
16:00 +31°C° 0.5 mm 1 mps 743 mmHg 84%
17:00 +30°C° 0 mm 1 mps 743 mmHg 87%
18:00 +27°C° 0 mm 0 mps 743 mmHg 89%
19:00 +26°C° 0 mm 0 mps 744 mmHg 91%
20:00 +26°C° 0 mm 0 mps 744 mmHg 92%
21:00 +26°C° 0 mm 0 mps 745 mmHg 92%
22:00 +25°C° 0 mm 0 mps 745 mmHg 92%
23:00 +27°C° 0 mm 1 mps 745 mmHg 92%

Day after tomorrow, 22 September, Tuesday

Time Temperature Precipitation Wind Pressure Humidity
00:00 +27°C° 0 mm 1 mps 745 mmHg 92%
01:00 +27°C° 0 mm 1 mps 745 mmHg 91%
02:00 +27°C° 0 mm 1 mps 745 mmHg 91%
03:00 +26°C° 0 mm 1 mps 744 mmHg 91%
04:00 +26°C° 0 mm 1 mps 744 mmHg 90%
05:00 +27°C° 0 mm 1 mps 744 mmHg 89%
06:00 +25°C° 0 mm 0 mps 745 mmHg 87%
07:00 +26°C° 0 mm 0 mps 745 mmHg 85%
08:00 +28°C° 0 mm 0 mps 745 mmHg 78%
09:00 +32°C° 0 mm 1 mps 745 mmHg 71%
10:00 +34°C° 0 mm 1 mps 745 mmHg 63%
11:00 +34°C° 0.7 mm 1 mps 745 mmHg 64%
12:00 +35°C° 0.7 mm 1 mps 744 mmHg 64%
13:00 +35°C° 0.7 mm 1 mps 743 mmHg 65%
14:00 +34°C° 1.7 mm 1 mps 743 mmHg 69%
15:00 +34°C° 1.7 mm 1 mps 742 mmHg 74%
16:00 +33°C° 1.7 mm 1 mps 741 mmHg 78%
17:00 +31°C° 0.5 mm 1 mps 742 mmHg 83%
18:00 +30°C° 0.5 mm 1 mps 742 mmHg 88%
19:00 +29°C° 0.5 mm 1 mps 743 mmHg 93%
20:00 +29°C° 0.3 mm 1 mps 743 mmHg 93%
21:00 +28°C° 0.3 mm 1 mps 744 mmHg 93%
22:00 +28°C° 0.3 mm 1 mps 744 mmHg 93%
23:00 +28°C° 0 mm 1 mps 744 mmHg 93%

23 September, Wednesday

Time Temperature Precipitation Wind Pressure Humidity
00:00 +28°C° 0.1 mm 1 mps 744 mmHg 93%
01:00 +27°C° 0.1 mm 1 mps 743 mmHg 93%
02:00 +27°C° 0 mm 1 mps 743 mmHg 93%
03:00 +27°C° 0 mm 1 mps 743 mmHg 93%
04:00 +25°C° 0 mm 0 mps 743 mmHg 93%
05:00 +25°C° 0 mm 0 mps 743 mmHg 92%
06:00 +26°C° 0 mm 0 mps 744 mmHg 92%
07:00 +26°C° 0 mm 0 mps 744 mmHg 91%
08:00 +28°C° 0.1 mm 0 mps 744 mmHg 83%
09:00 +32°C° 0.1 mm 1 mps 745 mmHg 76%
10:00 +34°C° 0.1 mm 1 mps 745 mmHg 69%
11:00 +34°C° 0.6 mm 1 mps 744 mmHg 67%
12:00 +35°C° 0.6 mm 1 mps 744 mmHg 65%
13:00 +36°C° 0.6 mm 1 mps 743 mmHg 63%
14:00 +35°C° 1.7 mm 1 mps 743 mmHg 69%
15:00 +34°C° 1.7 mm 1 mps 743 mmHg 74%
16:00 +33°C° 1.7 mm 1 mps 742 mmHg 80%
17:00 +32°C° 1.2 mm 1 mps 743 mmHg 84%
18:00 +30°C° 1.2 mm 1 mps 743 mmHg 88%
19:00 +29°C° 1.2 mm 1 mps 744 mmHg 92%
20:00 +29°C° 1 mm 1 mps 744 mmHg 92%
21:00 +28°C° 1 mm 1 mps 745 mmHg 93%
22:00 +28°C° 1 mm 1 mps 745 mmHg 93%
23:00 +28°C° 0.3 mm 1 mps 745 mmHg 93%

24 September, Thursday

Time Temperature Precipitation Wind Pressure Humidity
00:00 +28°C° 0.3 mm 1 mps 745 mmHg 93%
01:00 +27°C° 0.3 mm 1 mps 744 mmHg 93%
02:00 +27°C° 0.2 mm 1 mps 744 mmHg 93%
03:00 +27°C° 0.2 mm 1 mps 744 mmHg 92%
04:00 +27°C° 0.2 mm 1 mps 744 mmHg 92%
05:00 +27°C° 0 mm 1 mps 744 mmHg 91%
06:00 +26°C° 0 mm 0 mps 745 mmHg 90%
07:00 +26°C° 0 mm 0 mps 745 mmHg 90%
08:00 +30°C° 0.1 mm 1 mps 745 mmHg 83%
09:00 +32°C° 0.1 mm 1 mps 745 mmHg 76%
10:00 +33°C° 0.1 mm 1 mps 745 mmHg 69%
11:00 +33°C° 1.6 mm 1 mps 745 mmHg 72%
12:00 +33°C° 1.6 mm 1 mps 744 mmHg 74%
13:00 +33°C° 1.6 mm 1 mps 744 mmHg 77%
14:00 +33°C° 1.7 mm 1 mps 744 mmHg 79%
15:00 +32°C° 1.7 mm 1 mps 743 mmHg 80%
16:00 +32°C° 1.7 mm 1 mps 743 mmHg 82%
17:00 +31°C° 1.3 mm 1 mps 743 mmHg 85%
18:00 +30°C° 1.3 mm 1 mps 744 mmHg 88%
19:00 +28°C° 1.3 mm 1 mps 744 mmHg 92%
20:00 +28°C° 0.2 mm 1 mps 744 mmHg 92%
21:00 +28°C° 0.2 mm 1 mps 745 mmHg 92%
22:00 +27°C° 0.2 mm 1 mps 745 mmHg 92%
23:00 +27°C° 0.7 mm 1 mps 745 mmHg 93%

25 September, Friday

Time Temperature Precipitation Wind Pressure Humidity
00:00 +27°C° 0.7 mm 1 mps 745 mmHg 93%
01:00 +27°C° 0.7 mm 1 mps 744 mmHg 94%
02:00 +27°C° 0.6 mm 1 mps 744 mmHg 94%
03:00 +27°C° 0.6 mm 1 mps 744 mmHg 94%
04:00 +26°C° 0.6 mm 1 mps 743 mmHg 94%
05:00 +27°C° 0 mm 1 mps 744 mmHg 93%
06:00 +27°C° 0 mm 1 mps 744 mmHg 92%
07:00 +28°C° 0 mm 1 mps 744 mmHg 91%
08:00 +29°C° 0 mm 1 mps 744 mmHg 84%
09:00 +31°C° 0 mm 1 mps 744 mmHg 77%
10:00 +33°C° 0 mm 1 mps 744 mmHg 71%
11:00 +33°C° 0.3 mm 1 mps 744 mmHg 70%
12:00 +33°C° 0.3 mm 1 mps 743 mmHg 70%
13:00 +34°C° 0.3 mm 1 mps 742 mmHg 70%
14:00 +33°C° 1.7 mm 1 mps 742 mmHg 74%
15:00 +33°C° 1.7 mm 1 mps 741 mmHg 78%
16:00 +32°C° 1.7 mm 1 mps 741 mmHg 82%
17:00 +31°C° 0.6 mm 1 mps 741 mmHg 86%
18:00 +29°C° 0.6 mm 1 mps 742 mmHg 89%
19:00 +28°C° 0.6 mm 1 mps 742 mmHg 93%
20:00 +28°C° 0 mm 1 mps 742 mmHg 93%
21:00 +28°C° 0 mm 1 mps 743 mmHg 93%
22:00 +27°C° 0 mm 1 mps 743 mmHg 93%
23:00 +27°C° 0 mm 1 mps 743 mmHg 92%
Show more